Find Yaogan 50 hao 02 xing

NORAD ID: 68196 Int'l Des: 2026-051 Owner: ZXW Country: CN Constellation: yaogan operational
LEORETROGRADE

現在のビュー

3D地球を読み込み中...

About Yaogan 50 hao 02 xing

Yaogan 50 hao 02 xing (NORAD 68196) is a yaogan constellation satellite launched Mar 15, 2026 by ZXW of CN. It operates in LEO, RETROGRADE orbit with a mass of 1500.00 kg.

Yaogan 50 hao 02 xingについて

説明を読み込み中...

次回通過

Passes for default location (London). Set your location on the main map for personalized predictions.

高度履歴

Loading altitude history...

軌道要素

1 68196U 26051A 26166.19381929 .00000312 00000-0 11348-3 0 9993
2 68196 141.9904 317.9662 0000535 276.7649 83.3010 13.83268938 12715
Epoch: Jun 15, 2026 • Age: 7 hours

現在のステータス

高度 961.5 km
速度 7.37 km/s
衛星直下点 -35.02°S, 50.14°W
打ち上げ日 Mar 15, 2026
運用期間 0.2 years
タイプ military

技術仕様

分類 Payload
質量 1500.00 kg
乾燥質量 1500.00 kg
総質量 1500.00 kg
長さ 4.00 m
直径 2.00 m
スパン 10.00 m
形状 Box + 2 Pan
製造者 CAST
バスタイプ YG50
フェーズステータス In Orbit
所有者/国 ZXW/CN

Most Searched